(509905) = 2009 DJ42

Discovered at Kitt Peak on 2009-02-03 by Spacewatch.

Orbit

Orbit type: Main Belt

Note: WebGL enabled browser required.

epoch2023-02-25.0
epoch JD2460000.5
perihelion date2018-09-20.14788
perihelion JD2458381.64788
argument of perihelion (°)44.64061
ascending node (°)156.08287
inclination (°)11.01421
eccentricity0.1933290
perihelion distance (AU)2.2205403
Tisserand w.r.t. Jupiter3.3
ΔV w.r.t. Earth (km/sec)10.0
semimajor axis (AU)2.7527212
mean anomaly (°)349.35557
mean daily motion (°/day)0.21580450
aphelion distance (AU)3.285
period (years)4.57
P-vector [x]-0.93005182
P-vector [y]-0.36720244
P-vector [z]-0.01288344
Q-vector [x]0.35917163
Q-vector [y]-0.90120128
Q-vector [z]-0.24255308
absolute magnitude17.41
phase slope0.15
uncertainty0
referenceMPO 745323
observations used115
oppositions6
arc length (days)5238
first opposition used2009
last opposition used2023
residual rms (arc-secs)0.75
perturbers coarse indicatorM-v
perturbers precise indicator003Ek
first observation date used2009-02-03.0
last observation date used2023-06-08.0
computer nameMPCLINUX
JD of orbit computation2458134.200549
perihelion JD uncertainty (days)6.6767E-05
argument of perihelion uncertainty (°)2.5453E-05
ascending node uncertainty (°)1.9094E-05
inclination uncertainty (°)3.3213E-06
eccentricity uncertainty 4.0895E-08
perihelion distance uncertainty (AU)1.1045E-07
Minimum Orbit Intersection Distances (in AU)
for orbit epoch: 2460000.5, reference: E2023-L38
Mercury1.79509
Venus1.50273
Earth1.23481
Mars0.60046
Jupiter1.71373
Saturn6.01339
Uranus16.0818
Neptune26.5888

Observations

116 total observations over interval: 2009 02 03.34285 – 2023 06 08.247425
These data are available for download (format description).

